Location: Waco, TX
(31.5480°N, 97.1670°W)
Time: 09:44:08
(UTC-05:00)

ISS - Pass Details

Date: 12 February 2019
Orbit: 411 x 421 km, 51.6° (Epoch: 21 October)

Event Time Altitude Azimuth Distance (km) Brightness Sun altitude
Rises 16:41:19 0° 330° (NNW) 2,407 0.1 17.3°
Reaches altitude 10° 16:44:00 10° 352° (N) 1,541 -1.0 16.8°
Maximum altitude 16:46:20 17° 35° (NE) 1,194 -1.9 16.3°
Drops below altitude 10° 16:48:39 10° 77° (ENE) 1,541 -1.4 15.9°
Sets 16:51:19 0° 98° (E) 2,408 -0.4 15.4°
